Tracking 19563 objects as of 20-Mar-2019
HD Live streaming from Space Station
objects crossing your sky now

COSMOS 505

Track COSMOS 505 now!
10-day predictions
COSMOS 505 is classified as:


NORAD ID: 6118
Int'l Code: 1972-057B
Perigee: 1,358.4 km
Apogee: 1,503.7 km
Inclination: 74.0 °
Period: 114.3 minutes
Semi major axis: 7802 km
RCS: 0.7076 m2 (medium)
Launch date: July 20, 1972
Source: Commonwealth of Independent States (former USSR) (CIS)
Launch site: PLESETSK MISSILE AND SPACE COMPLEX (PKMTR)
aabbcc
Your satellite tracking list
Your tracking list is empty




NASA's NSSDC Master Catalog

Two Line Element Set (TLE):
1  6118U 72057B   19078.36529778 -.00000034 +00000-0 -98189-4 0  9997
2  6118 074.0284 196.1437 0093087 296.7512 084.3884 12.59771610145748
Source of the keplerian elements: AFSPC